Date String (YYYY-MM-DD hh:mm:ss) UTC,Instrument flags,absolute air pressure of the measurement (hPa),sample flow rate (lpm),inlet stack bypass flow (lpm),air temperature of the measurement (°C),ambient temperature measured by the external sensor (°C),aerosol sample conditioner tube jacket temperature (°C),OPC LED temperature (°C),internal box temperature (°C),relative humidity of the measurement (%),span deviation,mass concentration of particles derived from Lorenz-Mie calculation of OPC scattering (μg/m³),mass concentration of particles derived from Lorenz-Mie calculation of OPC scattering (μg/m³),mass concentration of particles derived from Lorenz-Mie calculation of OPC scattering (μg/m³)
DateTimeUTC,F1_M11,P_M11,Q1_M11,Q2_M11,T1_M11,T2_M11,T3_M11,T4_M11,T5_M11,U1_M11,ZSPAN_M11,X2_M11,X0_M11,X1_M11
2024-02-21 14:00:00,SystemResetWarning,0825.1,5.00,000.00,022.3,021.6,000.0,030.9,024.2,17.4,0000.0,0001.52,0004.34,0001.06
2024-02-21 14:01:00,SystemResetWarning,0825.1,5.00,000.00,022.3,021.6,000.0,030.9,024.2,17.6,0000.0,0001.55,0004.53,0001.08
2024-02-21 14:02:00,SystemResetWarning,0825.1,5.00,000.00,022.3,021.6,000.0,030.9,024.2,17.8,0000.0,0001.59,0003.86,0001.11
2024-02-21 14:03:00,SystemResetWarning,0825.1,4.99,000.00,022.3,021.6,000.0,030.8,024.1,18.0,0000.0,0001.64,0003.60,0001.14
2024-02-21 14:04:00,SystemResetWarning,0825.1,5.00,000.00,022.3,021.6,000.0,030.8,024.1,17.8,0000.0,0001.67,0004.11,0001.16
2024-02-21 14:05:00,SystemResetWarning,0825.1,5.00,000.00,022.3,021.6,000.0,030.8,024.1,17.6,0000.0,0001.71,0004.47,0001.17
2024-02-21 14:06:00,SystemResetWarning,0825.1,5.00,000.00,022.3,021.6,000.0,030.8,024.1,17.7,0000.0,0001.76,0005.21,0001.17
2024-02-21 14:07:00,SystemResetWarning,0825.1,5.01,000.00,022.3,021.6,000.0,030.8,024.1,17.8,0000.0,0001.79,0005.27,0001.19
2024-02-21 14:08:00,SystemResetWarning,0825.1,5.00,000.00,022.3,021.6,000.0,030.8,024.1,18.0,0000.0,0001.77,0005.16,0001.21
2024-02-21 14:09:00,SystemResetWarning,0825.1,5.00,000.00,022.3,021.6,000.0,030.8,024.1,18.0,0000.0,0001.77,0005.24,0001.23
2024-02-21 14:10:00,SystemResetWarning,0825.1,5.00,000.00,022.3,021.6,000.0,030.8,024.1,17.8,0000.0,0001.78,0005.18,0001.27
2024-02-21 14:11:00,SystemResetWarning,0825.0,5.00,000.00,022.2,021.6,000.0,030.8,024.1,17.6,0000.0,0001.81,0005.11,0001.31
2024-02-21 14:12:00,SystemResetWarning,0824.9,5.00,000.00,022.2,021.5,000.0,030.8,024.1,17.5,0000.0,0001.88,0005.15,0001.35
2024-02-21 14:13:00,SystemResetWarning,0824.9,5.00,000.00,022.2,021.5,000.0,030.7,024.1,17.8,0000.0,0001.91,0005.21,0001.37
2024-02-21 14:14:00,SystemResetWarning,0824.9,5.00,000.00,022.2,021.5,000.0,030.7,024.1,17.7,0000.0,0001.91,0005.23,0001.35
2024-02-21 14:15:00,SystemResetWarning,0824.9,5.00,000.00,022.2,021.5,000.0,030.7,024.1,17.5,0000.0,0001.94,0004.77,0001.37
2024-02-21 14:16:00,SystemResetWarning,0825.0,5.00,000.00,022.2,021.5,000.0,030.7,024.1,18.1,0000.0,0002.01,0004.64,0001.42
2024-02-21 14:17:00,SystemResetWarning,0825.0,5.00,000.00,022.2,021.5,000.0,030.7,024.1,18.4,0000.0,0002.01,0003.75,0001.48
2024-02-21 14:18:00,SystemResetWarning,0825.1,5.00,000.00,022.2,021.6,000.0,030.7,024.1,18.3,0000.0,0002.02,0003.70,0001.51
2024-02-21 14:19:00,SystemResetWarning,0825.1,5.00,000.00,022.2,021.6,000.0,030.7,024.1,18.5,0000.0,0002.01,0003.56,0001.51
2024-02-21 14:20:00,SystemResetWarning,0825.1,4.99,000.00,022.2,021.5,000.0,030.7,024.0,18.4,0000.0,0001.95,0003.18,0001.50
2024-02-21 14:21:00,SystemResetWarning,0825.1,5.00,000.00,022.2,021.5,000.0,030.7,024.0,18.3,0000.0,0001.96,0003.48,0001.50
2024-02-21 14:22:00,SystemResetWarning,0825.1,5.00,000.00,022.2,021.5,000.0,030.7,024.0,18.2,0000.0,0001.96,0003.95,0001.48
2024-02-21 14:23:00,SystemResetWarning,0825.1,5.00,000.00,022.2,021.5,000.0,030.7,024.0,17.9,0000.0,0001.94,0003.82,0001.46
2024-02-21 14:24:00,SystemResetWarning,0825.1,4.99,000.00,022.2,021.5,000.0,030.7,024.0,18.0,0000.0,0001.92,0003.95,0001.44
2024-02-21 14:25:00,SystemResetWarning,0825.1,5.00,000.00,022.2,021.5,000.0,030.7,024.1,18.4,0000.0,0001.99,0004.51,0001.52
2024-02-21 14:26:00,SystemResetWarning,0825.1,5.01,000.00,022.2,021.5,000.0,030.7,024.1,18.7,0000.0,0002.05,0004.70,0001.57
2024-02-21 14:27:00,SystemResetWarning,0825.1,5.01,000.00,022.2,021.5,000.0,030.7,024.0,18.4,0000.0,0002.07,0004.87,0001.60
2024-02-21 14:28:00,SystemResetWarning,0825.1,5.00,000.00,022.2,021.5,000.0,030.7,024.0,18.0,0000.0,0002.08,0004.91,0001.62
2024-02-21 14:29:00,SystemResetWarning,0825.1,4.99,000.00,022.2,021.5,000.0,030.7,024.0,18.4,0000.0,0002.10,0004.92,0001.65
2024-02-21 14:30:00,SystemResetWarning,0825.1,5.00,000.00,022.2,021.5,000.0,030.7,024.0,18.7,0000.0,0002.22,0005.15,0001.69
2024-02-21 14:31:00,SystemResetWarning,0825.1,4.99,000.00,022.2,021.5,000.0,030.7,024.0,18.2,0000.0,0002.27,0005.07,0001.75
2024-02-21 14:32:00,SystemResetWarning,0825.1,4.99,000.00,022.2,021.5,000.0,030.7,024.0,17.9,0000.0,0002.28,0004.83,0001.77
2024-02-21 14:33:00,SystemResetWarning,0825.1,5.00,000.00,022.2,021.5,000.0,030.6,024.0,17.9,0000.0,0002.33,0004.56,0001.80
2024-02-21 14:34:00,SystemResetWarning,0825.1,5.02,000.00,022.2,021.5,000.0,030.6,024.0,18.1,0000.0,0002.39,0004.48,0001.87
2024-02-21 14:35:00,SystemResetWarning,0825.1,5.01,000.00,022.1,021.5,000.0,030.6,024.0,18.4,0000.0,0002.51,0004.77,0001.95
2024-02-21 14:36:00,SystemResetWarning,0825.1,5.00,000.00,022.1,021.5,000.0,030.6,024.0,18.3,0000.0,0002.48,0004.50,0001.92
2024-02-21 14:37:00,SystemResetWarning,0825.1,5.00,000.00,022.1,021.5,000.0,030.6,024.0,18.2,0000.0,0002.52,0004.72,0001.93
2024-02-21 14:38:00,SystemResetWarning,0825.1,5.00,000.00,022.1,021.5,000.0,030.6,024.0,18.1,0000.0,0002.53,0006.59,0001.94
2024-02-21 14:39:00,SystemResetWarning,0825.1,5.00,000.00,022.1,021.5,000.0,030.6,024.0,17.9,0000.0,0002.60,0008.58,0001.97
2024-02-21 14:40:00,SystemResetWarning,0825.1,4.99,000.00,022.1,021.5,000.0,030.6,023.9,17.7,0000.0,0002.66,0008.78,0001.96
2024-02-21 14:41:00,SystemResetWarning,0825.1,5.00,000.00,022.1,021.5,000.0,030.6,023.9,17.6,0000.0,0002.66,0008.93,0001.95
2024-02-21 14:42:00,SystemResetWarning,0825.1,5.00,000.00,022.1,021.5,000.0,030.6,023.9,17.6,0000.0,0002.72,0009.12,0001.96
2024-02-21 14:43:00,SystemResetWarning,0825.2,5.00,000.00,022.1,021.5,000.0,030.6,023.9,17.8,0000.0,0002.83,0009.37,0002.01
2024-02-21 14:44:00,SystemResetWarning,0825.1,5.00,000.00,022.1,021.5,000.0,030.6,023.9,17.9,0000.0,0002.85,0009.30,0002.05
2024-02-21 14:45:00,SystemResetWarning,0825.1,5.00,000.00,022.1,021.5,000.0,030.6,023.9,18.2,0000.0,0002.85,0009.64,0002.04
2024-02-21 14:46:00,SystemResetWarning,0825.1,5.00,000.00,022.1,021.5,000.0,030.6,023.9,18.4,0000.0,0002.79,0009.83,0002.02
2024-02-21 14:47:00,SystemResetWarning,0825.1,5.00,000.00,022.1,021.5,000.0,030.6,023.9,18.5,0000.0,0002.82,0010.64,0002.03
2024-02-21 14:48:00,SystemResetWarning,0825.0,5.00,000.00,022.1,021.5,000.0,030.6,023.9,18.7,0000.0,0002.80,0011.17,0002.00
2024-02-21 14:49:00,SystemResetWarning,0824.9,5.00,000.00,022.2,021.5,000.0,030.6,024.0,18.8,0000.0,0002.74,0010.33,0001.94
2024-02-21 14:50:00,SystemResetWarning,0825.0,5.00,000.00,022.2,021.5,000.0,030.6,024.0,19.1,0000.0,0002.65,0009.76,0001.87
2024-02-21 14:51:00,SystemResetWarning,0825.1,5.00,000.00,022.2,021.6,000.0,030.6,024.0,19.0,0000.0,0002.60,0009.72,0001.85
2024-02-21 14:52:00,SystemResetWarning,0825.1,4.99,000.00,022.2,021.6,000.0,030.6,024.0,19.0,0000.0,0002.59,0009.69,0001.84
2024-02-21 14:53:00,SystemResetWarning,0824.9,5.00,000.00,022.2,021.6,000.0,030.6,024.0,19.0,0000.0,0002.58,0009.64,0001.84
2024-02-21 14:54:00,SystemResetWarning,0824.9,5.00,000.00,022.2,021.6,000.0,030.6,024.0,19.0,0000.0,0002.56,0009.47,0001.83
2024-02-21 14:55:00,SystemResetWarning,0824.9,5.01,000.00,022.2,021.6,000.0,030.6,024.0,18.8,0000.0,0002.54,0009.48,0001.82
2024-02-21 14:56:00,SystemResetWarning,0824.9,5.01,000.00,022.2,021.6,000.0,030.6,024.0,19.0,0000.0,0002.55,0009.84,0001.83
2024-02-21 14:57:00,SystemResetWarning,0824.9,4.99,000.00,022.2,021.6,000.0,030.6,024.0,19.0,0000.0,0002.60,0010.21,0001.86
2024-02-21 14:58:00,SystemResetWarning,0824.9,4.99,000.00,022.2,021.6,000.0,030.6,024.1,19.2,0000.0,0002.64,0010.04,0001.89
2024-02-21 14:59:00,SystemResetWarning,0824.9,4.99,000.00,022.2,021.6,000.0,030.6,024.0,19.3,0000.0,0002.67,0009.53,0001.93
